�������l�o���
Date,Time,MP-1(��Sv/h),MP-2(��Sv/h),MP-3(��Sv/h),MP-4(��Sv/h),MP-5(��Sv/h),MP-6(��Sv/h),MP-7(��Sv/h),MP-8(��Sv/h),����,����(m/s),���J
2017/07/18,00:00,1.004,1.599,1.072,1.908,1.334,0.532,0.976,0.896,�k,2.9,��
2017/07/18,00:10,1.003,1.599,1.073,1.909,1.335,0.533,0.977,0.897,�k�k��,3.1,��
2017/07/18,00:20,1.004,1.597,1.072,1.910,1.333,0.533,0.976,0.894,�k�k��,2.9,��
2017/07/18,00:30,1.004,1.596,1.073,1.911,1.333,0.532,0.976,0.897,�k��,3.2,��
2017/07/18,00:40,1.004,1.597,1.073,1.910,1.336,0.533,0.977,0.895,�k�k��,2.9,��
2017/07/18,00:50,1.004,1.597,1.077,1.911,1.335,0.532,0.977,0.897,�k�k��,3.2,��
2017/07/18,01:00,1.004,1.597,1.074,1.910,1.333,0.533,0.977,0.895,�k,4.7,��
2017/07/18,01:10,1.005,1.597,1.074,1.913,1.334,0.532,0.979,0.896,���k��,1.4,��
2017/07/18,01:20,0.999,1.585,1.065,1.906,1.324,0.531,0.973,0.896,�쐼,3.6,�L
2017/07/18,01:30,0.985,1.563,1.051,1.885,1.304,0.532,0.970,0.892,�k�k��,3.9,�L
2017/07/18,01:40,0.984,1.560,1.053,1.880,1.303,0.533,0.969,0.892,�k��,4.0,�L
2017/07/18,01:50,0.980,1.551,1.048,1.874,1.294,0.531,0.969,0.891,�k��,3.6,�L
2017/07/18,02:00,0.975,1.541,1.043,1.861,1.285,0.531,0.965,0.890,-,CALM,�L
2017/07/18,02:10,0.972,1.535,1.044,1.859,1.281,0.530,0.964,0.889,�k�k��,2.6,�L
2017/07/18,02:20,0.970,1.533,1.043,1.855,1.280,0.530,0.963,0.887,�k,2.0,�L
2017/07/18,02:30,0.972,1.533,1.038,1.853,1.280,0.526,0.961,0.887,�k,2.0,�L
2017/07/18,02:40,0.971,1.537,1.041,1.853,1.281,0.529,0.960,0.887,�k�k��,2.2,�L
2017/07/18,02:50,0.972,1.538,1.041,1.853,1.280,0.529,0.960,0.887,�k,1.2,�L
2017/07/18,03:00,0.973,1.538,1.041,1.856,1.281,0.530,0.960,0.886,-,CALM,�L
2017/07/18,03:10,0.973,1.537,1.042,1.854,1.281,0.528,0.959,0.886,��,1.5,�L
2017/07/18,03:20,0.971,1.534,1.041,1.849,1.281,0.530,0.957,0.885,��쐼,1.2,�L
2017/07/18,03:30,0.974,1.534,1.042,1.852,1.280,0.530,0.959,0.888,-,CALM,�L
2017/07/18,03:40,0.974,1.537,1.040,1.847,1.281,0.528,0.960,0.886,-,CALM,�L
2017/07/18,03:50,0.973,1.535,1.040,1.848,1.279,0.528,0.960,0.885,���k��,0.8,�L
2017/07/18,04:00,0.971,1.537,1.040,1.848,1.278,0.526,0.959,0.887,-,CALM,�L
2017/07/18,04:10,0.971,1.535,1.040,1.852,1.275,0.527,0.958,0.886,�k,1.2,�L
2017/07/18,04:20,0.968,1.535,1.039,1.848,1.277,0.527,0.960,0.885,�k��,4.0,�L
2017/07/18,04:30,0.966,1.524,1.034,1.838,1.270,0.528,0.957,0.885,�k,9.5,�L
2017/07/18,04:40,0.961,1.518,1.031,1.824,1.260,0.528,0.954,0.883,���k��,3.2,�L
2017/07/18,04:50,0.957,1.510,1.030,1.819,1.255,0.527,0.951,0.878,��,3.6,�L
2017/07/18,05:00,0.958,1.501,1.028,1.813,1.252,0.524,0.947,0.873,��쓌,1.7,�L
2017/07/18,05:10,0.960,1.506,1.029,1.816,1.252,0.527,0.948,0.875,�k��,11.3,�L
2017/07/18,05:20,0.965,1.509,1.032,1.820,1.255,0.528,0.949,0.875,�쓌,1.7,�L
2017/07/18,05:30,0.966,1.513,1.031,1.824,1.260,0.529,0.950,0.877,�쓌,1.9,�L
2017/07/18,05:40,0.966,1.515,1.032,1.826,1.260,0.536,0.949,0.876,�쓌,2.0,�L
2017/07/18,05:50,0.965,1.515,1.030,1.824,1.260,0.527,0.951,0.876,�쓌,2.9,�L
2017/07/18,06:00,0.963,1.513,1.028,1.826,1.260,0.526,0.949,0.876,��쓌,3.6,�L
2017/07/18,06:10,0.964,1.516,1.029,1.827,1.258,0.525,0.950,0.876,��쓌,3.1,�L
2017/07/18,06:20,0.961,1.517,1.024,1.826,1.256,0.523,0.948,0.875,��쓌,2.9,�L
2017/07/18,06:30,0.962,1.518,1.024,1.821,1.253,0.525,0.948,0.876,��쓌,3.1,�L
2017/07/18,06:40,0.960,1.511,1.021,1.820,1.250,0.524,0.948,0.876,��쓌,3.4,�L
2017/07/18,06:50,0.960,1.510,1.024,1.819,1.252,0.523,0.946,0.874,��쓌,3.0,�L
2017/07/18,07:00,0.957,1.510,1.022,1.817,1.252,0.524,0.946,0.872,��,3.0,�L
2017/07/18,07:10,0.955,1.507,1.020,1.814,1.252,0.525,0.947,0.874,��쐼,2.0,�L
2017/07/18,07:20,0.961,1.509,1.022,1.816,1.251,0.522,0.947,0.875,��쐼,1.5,�L
2017/07/18,07:30,0.958,1.508,1.023,1.815,1.248,0.524,0.947,0.875,�쐼,1.4,�L
2017/07/18,07:40,0.957,1.505,1.022,1.815,1.251,0.524,0.945,0.875,��쐼,1.7,�L
2017/07/18,07:50,0.956,1.504,1.021,1.813,1.250,0.522,0.946,0.873,-,CALM,�L
2017/07/18,08:00,0.953,1.501,1.020,1.806,1.246,0.522,0.944,0.873,��쐼,1.7,�L
2017/07/18,08:10,0.953,1.500,1.021,1.805,1.245,0.523,0.944,0.874,��쐼,1.2,�L
2017/07/18,08:20,0.953,1.502,1.022,1.811,1.247,0.524,0.946,0.874,��,0.9,�L
2017/07/18,08:30,0.955,1.502,1.021,1.807,1.248,0.527,0.944,0.874,��쐼,0.9,�L
2017/07/18,08:40,0.957,1.503,1.023,1.808,1.250,0.526,0.947,0.875,��쐼,1.1,�L
2017/07/18,08:50,0.960,1.508,1.023,1.808,1.251,0.529,0.946,0.875,���쐼,1.2,�L
2017/07/18,09:00,0.961,1.506,1.024,1.809,1.251,0.527,0.944,0.873,�k��,0.6,�L
2017/07/18,09:10,0.960,1.506,1.023,1.809,1.250,0.527,0.946,0.875,�k,1.2,�L
2017/07/18,09:20,0.958,1.508,1.023,1.813,1.248,0.525,0.946,0.875,�k,2.0,�L
2017/07/18,09:30,0.958,1.506,1.024,1.810,1.250,0.526,0.946,0.873,�k��,3.0,�L
2017/07/18,09:40,0.959,1.504,1.021,1.812,1.250,0.526,0.947,0.875,�k��,2.2,�L
2017/07/18,09:50,0.957,1.508,1.022,1.810,1.251,0.524,0.946,0.875,�k�k��,0.9,�L
2017/07/18,10:00,0.958,1.507,1.021,1.808,1.250,0.524,0.946,0.873,-,CALM,�L
2017/07/18,10:10,0.953,1.505,1.019,1.809,1.250,0.525,0.946,0.871,��,0.9,�L
2017/07/18,10:20,0.957,1.505,1.021,1.814,1.248,0.524,0.947,0.873,��,0.9,�L
2017/07/18,10:30,0.957,1.507,1.021,1.812,1.247,0.523,0.946,0.872,-,CALM,�L
2017/07/18,10:40,0.959,1.507,1.022,1.810,1.250,0.523,0.946,0.872,��,0.6,�L
2017/07/18,10:50,0.956,1.505,1.023,1.810,1.248,0.522,0.945,0.875,-,CALM,�L
2017/07/18,11:00,0.957,1.508,1.024,1.812,1.251,0.524,0.944,0.873,�k�k��,2.0,�L
2017/07/18,11:10,0.959,1.507,1.024,1.810,1.249,0.525,0.944,0.874,�k�k��,2.2,�L
2017/07/18,11:20,0.959,1.508,1.023,1.813,1.248,0.525,0.946,0.873,�k,2.2,�L
2017/07/18,11:30,0.957,1.507,1.020,1.810,1.247,0.523,0.945,0.872,�k�k��,3.0,�L
2017/07/18,11:40,0.957,1.503,1.018,1.806,1.246,0.522,0.944,0.874,�k�k��,2.6,�L
2017/07/18,11:50,0.955,1.495,1.017,1.804,1.241,0.523,0.942,0.870,�k�k��,2.5,�L
2017/07/18,12:00,0.952,1.494,1.015,1.800,1.241,0.525,0.943,0.870,�k��,2.9,�L
2017/07/18,12:10,0.957,1.498,1.019,1.801,1.243,0.526,0.945,0.873,���k��,3.3,�L
2017/07/18,12:20,0.958,1.502,1.022,1.800,1.245,0.528,0.945,0.872,��,3.2,�L
2017/07/18,12:30,0.959,1.505,1.022,1.805,1.246,0.529,0.944,0.874,�k��,3.1,�L
2017/07/18,12:40,0.959,1.506,1.021,1.805,1.252,0.529,0.947,0.874,�k�k��,3.2,�L
2017/07/18,12:50,0.961,1.506,1.023,1.808,1.249,0.527,0.946,0.873,�k�k��,2.3,�L
2017/07/18,13:00,0.963,1.505,1.020,1.805,1.249,0.525,0.947,0.875,�k��,1.2,��
2017/07/18,13:10,0.958,1.504,1.019,1.807,1.249,0.525,0.945,0.872,��,1.7,��
2017/07/18,13:20,0.959,1.503,1.022,1.806,1.248,0.522,0.947,0.872,�k��,0.8,��
2017/07/18,13:30,0.957,1.504,1.017,1.807,1.248,0.521,0.946,0.873,�k�k��,1.1,��
2017/07/18,13:40,0.954,1.504,1.017,1.807,1.248,0.519,0.947,0.874,�k��,1.4,��
2017/07/18,13:50,0.955,1.504,1.018,1.806,1.245,0.520,0.946,0.872,�k�k��,1.2,��
2017/07/18,14:00,0.954,1.505,1.013,1.807,1.244,0.520,0.947,0.870,�k,1.2,��
2017/07/18,14:10,0.957,1.502,1.014,1.806,1.245,0.518,0.946,0.873,�k�k��,0.9,��
2017/07/18,14:20,0.954,1.503,1.015,1.806,1.244,0.518,0.945,0.872,�k��,1.4,��
2017/07/18,14:30,0.955,1.507,1.014,1.807,1.247,0.518,0.946,0.871,�k��,2.0,��
2017/07/18,14:40,0.955,1.505,1.013,1.809,1.248,0.517,0.946,0.872,�k�k��,2.6,��
2017/07/18,14:50,0.955,1.504,1.015,1.808,1.246,0.518,0.946,0.873,�k�k��,2.8,��
2017/07/18,15:00,0.957,1.505,1.014,1.809,1.248,0.517,0.945,0.872,�k��,3.6,��
2017/07/18,15:10,0.955,1.509,1.014,1.809,1.250,0.519,0.947,0.874,�k��,4.2,��
2017/07/18,15:20,0.956,1.506,1.015,1.808,1.249,0.516,0.946,0.873,�k��,4.1,��
2017/07/18,15:30,0.957,1.511,1.016,1.810,1.251,0.519,0.948,0.873,�k�k��,4.1,��
2017/07/18,15:40,0.955,1.506,1.014,1.809,1.251,0.518,0.948,0.873,�k��,4.0,��
2017/07/18,15:50,0.958,1.508,1.014,1.807,1.250,0.517,0.949,0.873,�k�k��,4.5,��
2017/07/18,16:00,0.956,1.509,1.016,1.810,1.251,0.519,0.948,0.874,�k�k��,4.8,��
2017/07/18,16:10,0.957,1.507,1.016,1.812,1.251,0.518,0.948,0.874,�k�k��,3.5,��
2017/07/18,16:20,0.958,1.511,1.016,1.812,1.249,0.517,0.948,0.874,�k��,2.6,��
2017/07/18,16:30,0.959,1.509,1.016,1.810,1.251,0.518,0.949,0.874,�k�k��,3.1,��
2017/07/18,16:40,0.960,1.512,1.018,1.814,1.255,0.519,0.949,0.874,�k�k��,2.8,��
2017/07/18,16:50,0.957,1.512,1.016,1.807,1.254,0.517,0.951,0.874,�k�k��,1.9,��
2017/07/18,17:00,0.957,1.511,1.020,1.812,1.255,0.518,0.948,0.873,�k�k��,2.8,��
2017/07/18,17:10,0.958,1.511,1.016,1.812,1.255,0.517,0.950,0.874,�k�k��,3.1,��
2017/07/18,17:20,0.959,1.512,1.015,1.813,1.255,0.518,0.951,0.875,�k,2.0,��
2017/07/18,17:30,0.956,1.516,1.016,1.814,1.257,0.517,0.948,0.875,�k�k��,2.0,��
2017/07/18,17:40,0.957,1.516,1.020,1.816,1.256,0.517,0.949,0.876,�k�k��,1.4,��
2017/07/18,17:50,0.958,1.516,1.020,1.814,1.255,0.519,0.950,0.877,�k,1.5,��
2017/07/18,18:00,0.956,1.517,1.020,1.813,1.256,0.520,0.950,0.875,�k,2.8,��
2017/07/18,18:10,0.957,1.519,1.020,1.815,1.257,0.519,0.951,0.876,�k,4.1,��
2017/07/18,18:20,0.957,1.519,1.022,1.818,1.259,0.520,0.949,0.875,�k,3.2,��
2017/07/18,18:30,0.958,1.517,1.023,1.818,1.258,0.518,0.949,0.875,�k�k��,3.6,��
2017/07/18,18:40,0.958,1.517,1.020,1.820,1.259,0.519,0.948,0.875,�k�k��,3.6,��
2017/07/18,18:50,0.955,1.519,1.022,1.818,1.256,0.520,0.949,0.876,�k,3.9,��
2017/07/18,19:00,0.958,1.516,1.020,1.821,1.258,0.518,0.949,0.878,�k,3.6,��
2017/07/18,19:10,0.958,1.521,1.022,1.822,1.257,0.519,0.950,0.877,�k,4.1,��
2017/07/18,19:20,0.959,1.517,1.021,1.817,1.258,0.518,0.951,0.877,�k�k��,4.3,��
2017/07/18,19:30,0.961,1.519,1.021,1.817,1.257,0.520,0.951,0.878,�k�k��,3.9,��
2017/07/18,19:40,0.960,1.517,1.019,1.820,1.258,0.520,0.951,0.877,�k�k��,4.7,��
2017/07/18,19:50,0.960,1.520,1.020,1.821,1.256,0.518,0.952,0.878,�k�k��,4.4,��
2017/07/18,20:00,0.957,1.519,1.020,1.819,1.259,0.519,0.950,0.876,�k�k��,5.1,��
2017/07/18,20:10,0.958,1.520,1.019,1.823,1.258,0.519,0.950,0.877,�k,4.6,��
2017/07/18,20:20,0.957,1.517,1.022,1.819,1.258,0.520,0.950,0.878,�k,4.4,��
2017/07/18,20:30,0.960,1.517,1.020,1.819,1.259,0.518,0.950,0.877,�k,4.6,��
2017/07/18,20:40,0.961,1.521,1.022,1.819,1.259,0.518,0.951,0.879,�k�k��,3.6,��
2017/07/18,20:50,0.962,1.518,1.022,1.820,1.258,0.518,0.950,0.879,�k�k��,2.6,��
2017/07/18,21:00,0.960,1.521,1.020,1.820,1.258,0.518,0.952,0.878,�k��,2.2,��
2017/07/18,21:10,0.963,1.517,1.024,1.818,1.258,0.519,0.951,0.878,���k��,3.3,��
2017/07/18,21:20,0.962,1.520,1.022,1.821,1.257,0.518,0.951,0.880,�k��,3.4,��
2017/07/18,21:30,0.961,1.521,1.024,1.820,1.258,0.517,0.953,0.877,�k��,3.3,��
2017/07/18,21:40,0.961,1.520,1.022,1.819,1.259,0.519,0.951,0.879,�k��,2.5,��
2017/07/18,21:50,0.962,1.518,1.024,1.820,1.257,0.518,0.952,0.877,�k��,2.2,��
2017/07/18,22:00,0.959,1.518,1.023,1.819,1.260,0.520,0.951,0.878,�k��,2.3,��
2017/07/18,22:10,0.961,1.519,1.025,1.821,1.259,0.518,0.951,0.878,�k�k��,1.7,��
2017/07/18,22:20,0.963,1.518,1.024,1.819,1.259,0.519,0.949,0.880,�k,2.2,��
2017/07/18,22:30,0.961,1.521,1.023,1.822,1.258,0.518,0.952,0.880,�k,3.5,��
2017/07/18,22:40,0.961,1.518,1.022,1.819,1.260,0.519,0.952,0.878,�k,4.1,��
2017/07/18,22:50,0.960,1.520,1.023,1.821,1.259,0.518,0.951,0.879,�k,4.5,��
2017/07/18,23:00,0.962,1.520,1.022,1.821,1.260,0.518,0.954,0.878,�k,5.1,��
2017/07/18,23:10,0.960,1.517,1.023,1.822,1.258,0.518,0.953,0.879,�k,4.8,��
2017/07/18,23:20,0.961,1.520,1.019,1.821,1.260,0.519,0.950,0.877,�k,4.5,��
2017/07/18,23:30,0.962,1.519,1.021,1.820,1.259,0.519,0.953,0.879,�k�k��,4.1,��
2017/07/18,23:40,0.960,1.519,1.020,1.818,1.260,0.519,0.952,0.877,�k�k��,3.2,��
2017/07/18,23:50,0.964,1.521,1.022,1.821,1.258,0.520,0.953,0.877,�k�k��,3.8,��
